Elmira Corning Regional Airport
KELM : now visible

Airfield :











YOU CAN JOIN US ON...

 
LOGIN :

Register | Disclaimer

   EN    FR    IT 

 









Legend :    VFR   Marginal VFR   IFR   Intensive IFR   Very Intensive IFR
Visi :
Ceiling :
>= 8 km
>= 3000ft
5 to 8 km
1000 to 3000 ft
1500m to 5 km
500 to 1000 ft
800 to 1500m
200 to 500 ft
< 800m
< 200 ft
Symbols :   Thunderstorms  Fog  Heavy snow  Heavy precipitations  Wind > 20 kt






- Airport Elevation : 954 ft
- IATA code : ELM


KELM - Elmira Corning Regional

CURRENT METAR :
  • 220153Z 00000KT 10SM CLR M21/M22 A3054 RMK AO2 SLP371 T12061222

EXPIRED METARs :
  • 220053Z 00000KT 10SM CLR M18/M21 A3054 RMK AO2 SLP370 T11831206
  • 212353Z 02004KT 10SM CLR M16/M18 A3055 RMK AO2 SLP371 T11611183 11089 21161 51006

TAF KELM
Valid from the 22 at 00:00 until the 23 at 00:00 UTC


212333Z 2200/2224 00000KT P6SM SKC
FM220700 00000KT 5SM BR SKC
FM221300 VRB03KT P6SM SKC
FM221600 21007KT P6SM SCT250
KZNY FIR / North America



MET'MAP, your aeronautical weather chart ! - Copyright ORBIFLY December 2007 - Disclaimer

ORBIFLY MET'MAP TEAM :

Programming & Development : Alexandra Zaïnal
Concept & original design : Baudouin d'Aumeries
Assistance for programming : Marc-Olivier Méhu
Technical & hardware support : Manuel Goepfert

Contact : metmap@orbifly.com




SOURCES & CREDITS :

   NOAA       Earth
Advisory